www.pogodaiklimat.ru

Погода и климат >> Архив погоды >> Южная Африка >> Странд


ПОГОДА в Странде

  • Прогноз погоды в Странде
  • Монитор погоды в Странде

АРХИВ ПОГОДЫ в Странде

Время (UTC), дата Ветер
(напр.,м/с)
 
Видим.   Явления Облачность Т
(С)
Тd
(С)
f
(%)
Тe
(С)
Тes
(С)
Комфортность P
(гПа)
Po
(гПа)
Тmin
(С)
Tmax
(С)
R
(мм)
R24
(мм)
S
(см)
18 18.06 штиль 0 н/о н/о +20.3 +4.9 36 +21 +21 комфорт 1020.1 1019.3 +18.8 +26.5
21 18.06 ЮЗ 2 н/о н/о +16.9 +6.5 50 +17 +17 1021.0 1020.2 +16.3 +26.5
00 19.06 В 2 н/о н/о +15.3 +3.8 46 +16 +16 1020.3 1019.5 +13.6 +26.5
03 19.06 З 2 н/о н/о +14.8 +7.6 62 +15 +15 1020.3 1019.5 +13.6 +26.5
06 19.06 ЮЗ 1 н/о н/о +14.6 +6.9 60 +15 +15 1021.4 1020.6 +11.1
09 19.06 Ю 2 н/о н/о +19.9 +6.0 40 +21 +21 комфорт 1022.4 1021.6 +11.1 +19.9
12 19.06 С 4 н/о н/о +24.0 +5.5 30 +24 +24 комфорт 1021.0 1020.2 +11.1 +24.1
15 19.06 З 4 н/о н/о +19.9 +4.1 35 +21 +21 комфорт 1021.1 1020.3 +19.9 +24.7
18 19.06 В 2 н/о н/о +14.8 +4.2 49 +15 +15 1022.3 1021.5 +14.8 +24.7
21 19.06 В 2 н/о н/о +12.4 +3.4 54 +12 +12 1023.0 1022.2 +12.3 +24.7
00 20.06 В 2 н/о н/о +12.3 +1.9 49 +12 +12 1022.8 1022.0 +11.3 +24.7
03 20.06 СВ 2 н/о н/о +11.4 +1.9 52 +11 +11 1021.5 1020.7 +10.7 +24.7
06 20.06 В 1 н/о н/о +10.1 +4.0 66 +10 +10 1021.6 1020.8 +9.3
09 20.06 штиль 0 н/о н/о +19.3 +9.8 54 +20 +20 1021.5 1020.7 +9.3 +20.9
12 20.06 ЮЗ 2 н/о н/о +20.2 +9.5 50 +22 +22 комфорт 1018.9 1018.1 +9.3 +20.9
15 20.06 ЮЗ 5 н/о н/о +17.6 +8.8 56 +17 +17 1017.7 1016.9 +17.5 +21.4
18 20.06 СВ 1 н/о н/о +13.5 +6.6 63 +14 +14 1017.7 1016.9 +13.5 +21.4
21 20.06 З 2 н/о н/о +13.8 +7.3 65 +14 +14 1016.5 1015.7 +11.7 +21.4
00 21.06 ЮВ 1 н/о н/о +14.2 +3.1 47 +15 +15 1016.3 1015.5 +11.7 +21.4
03 21.06 С 2 н/о н/о +17.6 -0.5 29 +18 +18 1014.3 1013.5 +11.7 +21.4
06 21.06 С 3 н/о н/о +17.8 -0.8 28 +18 +18 1014.5 1013.7 +11.7
09 21.06 С 6 н/о н/о +20.6 -1.0 23 +20 +20 1013.9 1013.1 +11.7 +20.6
12 21.06 С 7 н/о н/о +22.0 +0.7 24 +21 +21 комфорт 1010.9 1010.1 +11.7 +22.5
15 21.06 С 7 н/о н/о +14.6 +10.8 78 +13 +13 1013.4 1012.6 +14.3 +22.5
18 21.06 С 12 н/о н/о +13.6 +9.4 76 +10 +10 1010.3 1009.5 +13.6 +22.5 2
21 21.06 С 7 н/о н/о +15.0 +11.9 82 +13 +13 1009.6 1008.8 +12.3 +22.5
03 22.06 ЮЗ 12 н/о н/о +13.8 +11.6 87 +10 +10 1020.3 1019.5 +12.3 +22.5
09 22.06 ЮЗ 9 н/о н/о +14.4 +12.9 91 +12 +12 1024.6 1023.8 +12.3 +14.8
18 22.06 ЮВ 3 н/о н/о +15.1 +11.5 79 +15 +15 1025.7 1024.9 +13.8 +15.9 4
00 23.06 В 3 н/о н/о +14.3 +9.9 75 +14 +14 1024.8 1024.0 +13.8 +15.9 4
09 23.06 ЮЗ 2 н/о н/о +14.4 +10.8 79 +14 +14 1024.6 1023.8 +9.7 +14.4
12 23.06 ЮЗ 3 н/о н/о +16.3 +11.5 73 +16 +16 1021.7 1020.9 +9.7 +16.6 0.2
15 23.06 З 2 н/о н/о +15.0 +12.3 84 +15 +15 1021.0 1020.2 +15.0 +17.1
18 23.06 штиль 0 н/о н/о +11.9 +9.8 87 +11 +11 1021.0 1020.2 +11.9 +17.1 0.2
21 23.06 штиль 0 н/о н/о +10.6 +8.8 89 +10 +10 1020.3 1019.5 +10.4 +17.1
00 24.06 штиль 0 н/о н/о +9.3 +7.7 90 +8 +8 1019.1 1018.3 +9.3 +17.1 0.2
03 24.06 штиль 0 н/о н/о +8.5 +7.2 92 +8 +8 1018.6 1017.8 +8.5 +17.1
06 24.06 штиль 0 н/о н/о +7.9 +6.8 93 +7 +7 1019.7 1018.9 +7.9 0.2
09 24.06 ЮЗ 1 н/о н/о +15.4 +11.8 79 +16 +16 1021.0 1020.2 +7.9 +15.6
12 24.06 ЮЗ 4 н/о н/о +16.5 +11.0 70 +16 +16 1019.9 1019.1 +7.9 +17.4
15 24.06 ЮВ 3 н/о н/о +16.1 +8.6 61 +16 +16 1020.5 1019.7 +16.1 +18.3
18 24.06 ЮВ 5 н/о н/о +15.3 +8.6 64 +14 +14 1020.9 1020.1 +15.2 +18.3
21 24.06 ЮВ 7 н/о н/о +13.7 +9.7 77 +11 +11 1021.4 1020.6 +13.7 +18.3
00 25.06 В 9 н/о н/о +13.7 +9.5 76 +11 +11 1020.4 1019.6 +13.5 +18.3
03 25.06 В 9 н/о н/о +14.1 +9.7 75 +12 +12 1020.2 1019.4 +13.5 +18.3
06 25.06 ЮВ 11 н/о н/о +13.9 +9.7 76 +11 +11 1020.6 1019.8 +13.5
09 25.06 ЮВ 11 н/о н/о +15.6 +10.4 71 +13 +13 1021.3 1020.5 +13.5 +15.6
12 25.06 ЮВ 10 н/о н/о +17.4 +10.6 64 +16 +16 1019.4 1018.6 +13.5 +17.5

 

Местоположение метеостанции Странд (Южная Африка): широта -34.14 долгота 18.85 высота над уровнем моря 7 м.

В архиве по умолчанию представлена погода в Странде за последнюю неделю. Архивные данные за месяц целиком и за предыдущие месяцы, начиная с января 2011 года, Вы можете получить, выбрав интересующий диапазон дат из раскрывающегося списка и нажав кнопку "Ввод!".


*Определитесь, кто Вы:
робот инопланетянин человек

Внимание! Время в таблицах - всемирное. Для получения местного времени необходимо прибавить поправку, которая равна 2 ч.

Смотрите также архив погоды в соседних городах и на ближайших метеорологических станциях:

Погода в Кейптауне аэропорту (Южная Африка) (31 км)
Погода в Кейптауне аэропорту АМС (Южная Африка) (31 км)
Погода на Кейп-Пойнт (Южная Африка) (40 км)
Погода в Йестерпланте (Южная Африка) (42 км)
Погода в Кейптауне (Южная Африка) (46 км)
Погода в Херманусе (Южная Африка) (47 км)
Погода в Кейптаун порту (Южная Африка) (47 км)
Погода в Парле (Южная Африка) (48 км)
Погода на Слангкопе (Южная Африка) (49 км)
Погода на Роббенэйланде (Южная Африка) (58 км)

Пояснения к столбцам:

Ветер - указаны скорость ветра в м/с - средняя за 10 мин, порывы в срок и между сроками (в фигурных скобках) и направление, откуда дует ветер: С - северный, СВ - северо-восточный, В - восточный, ЮВ - юго-восточный, Ю - южный, ЮЗ - юго-западный, З - западный, СЗ - северо-западный.
Видимость - горизонтальная дальность видимости в метрах или километрах. При видимости от 1 до 10 км при отсутствии осадков обычно наблюдается дымка, при ухудшении видимости до 1 км и менее - туман. В сухую погоду видимость может ухудшаться дымом, пылью или мглою.
Явления - указаны атмосферные явления, наблюдавшиеся в срок или в последний час перед сроком; фигурными скобками обозначены явления, наблюдавшиеся между сроками (за 1-3 часа до срока); квадратными скобками обозначены град или гололедные отложения с указанием их диаметра в мм.
Облачность - указаны через наклонную черту общая и нижняя облачность в баллах и высота нижней границы облаков в метрах; квадратными скобками обозначены формы облаков: Ci - перистые, Cs - перисто-слоистые, Cc - перисто-кучевые, Ac - высококучевые, As - высокослоистые, Sc - слоисто-кучевые, Ns - слоисто-дождевые, Cu - кучевые, Cb - кучево-дождевые. Подробнее классификацию облаков см. в Атласе облаков (PDF).
T - Температура воздуха - температура, измеренная на высоте 2 м над землей.
Td - Температура точки росы - температура, при понижении до которой содержащийся в воздухе водяной пар достигнет насыщения.
f - Относительная влажность воздуха - влажноcть воздуха, измеренная на высоте 2 м над землей.
Te - Эффективная температура - температура, которую ощущает одетый по сезону человек в тени. Характеристика душности погоды. При расчете учитывается влияние влажности воздуха и скорости ветра на теплоощущения человека.
Tes - Эффективная температура на солнце - температура, которую ощущает человек, с поправкой на солнечный нагрев. Характеристика знойности погоды. Зависит от высоты солнца над горизонтом, облачности и скорости ветра. Ночью, в пасмурную погоду, а также при ветре 12 м/с и более поправка равна нулю.
P - Атмосферное давление - приведенное к уровню моря атмосферное давление.
Po - Атмосферное давление - измеренное на уровне метеостанции атмосферное давление.
Tmin - Минимальная температура - минимум температуры воздуха на высоте 2 м над землей.
Tmax - Максимальная температура - максимум температуры воздуха на высоте 2 м над землей.
R - Количество осадков - Количество выпавших осадков за период времени, мм. При наведении курсора мыши на число - период времени, за который выпало указанное количество осадков.
R24 - Количество осадков - Количество выпавших осадков за 24 часа, мм.
S - Снежный покров - Высота снежного покрова, см. При наведении курсора мыши на число - состояние снежного покрова и степень покрытия местности в баллах.